Weather History for McKinney, TX

Change the Weather History Date:

Wednesday, May 13, 2009

  Actual Average (KADS) Record (KADS)
Temperature  
Mean Temperature 80 °F -  
Max Temperature 88 °F 81 °F 89 °F (2006)
Min Temperature 72 °F 63 °F 50 °F (1997)
Cooling Degree Days 14    
Growing Degree Days 30 (Base 50)    
Moisture  
Dew Point 70 °F    
Average Humidity 73    
Maximum Humidity 87    
Minimum Humidity 57    
Precipitation  
Precipitation 0.00 in - - ()
Sea Level Pressure  
Sea Level Pressure 29.79 in    
Wind  
Wind Speed 16 mph (South)    
Max Wind Speed 26 mph    
Max Gust Speed 36 mph    
Visibility 10 miles    
Events      
Averages and records for this station are not official NWS values.
T = Trace of Precipitation, MM = Missing Value Source: NWS Daily Summary

Daily Weather History Graph

Daily Weather History Graph

Search for Another Location

Airport:

Trip Planner

Search our weather history database for the weather conditions in past years. The results will help you decide how hot, cold, wet, or windy it might be!

Date:

Astronomy

May. 13, 2009 Rise Set
Actual Time 6:27 AM CDT 8:17 PM CDT
Civil Twilight 6:00 AM CDT 8:45 PM CDT
Nautical Twilight 5:27 AM CDT 9:18 PM CDT
Astronomical Twilight 4:53 AM CDT 9:53 PM CDT
Moon No Moon Rise 9:46 AM CDT (5/13)
Length of Visible Light 14h 44m
Length of Day
13h 50m
Waning Gibbous, 82% of the Moon is Illuminated
May 13
Waning Gibbous
May 17
Last Quarter
May 24
New
May 30
First Quarter
Jun 7
Full

Hourly Weather History & Observations

Time (CDT) Temp. Heat Index Dew Point Humidity Pressure Visibility Wind Dir Wind Speed Gust Speed Precip Events Conditions
12:53 AM 75.9 °F - 70.0 °F 82% 29.83 in 10.0 mi SSE 12.7 mph - N/A   Clear
1:53 AM 75.0 °F - 69.1 °F 82% 29.83 in 10.0 mi SSE 10.4 mph 19.6 mph N/A   Clear
2:53 AM 73.9 °F - 69.1 °F 85% 29.83 in 10.0 mi SSE 11.5 mph - N/A   Clear
3:53 AM 73.0 °F - 69.1 °F 87% 29.83 in 10.0 mi SSE 9.2 mph - N/A   Mostly Cloudy
4:53 AM 73.0 °F - 69.1 °F 87% 29.81 in 10.0 mi SSE 12.7 mph 20.7 mph N/A   Mostly Cloudy
5:53 AM 73.0 °F - 68.0 °F 84% 29.80 in 10.0 mi South 16.1 mph 25.3 mph N/A   Mostly Cloudy
6:53 AM 72.0 °F - 68.0 °F 87% 29.78 in 10.0 mi South 19.6 mph 29.9 mph N/A   Scattered Clouds
7:32 AM 73.4 °F - 68.0 °F 83% 29.80 in 10.0 mi South 21.9 mph 31.1 mph N/A   Mostly Cloudy
7:53 AM 73.0 °F - 68.0 °F 84% 29.79 in 10.0 mi South 18.4 mph 31.1 mph N/A   Mostly Cloudy
8:53 AM 73.9 °F - 68.0 °F 82% 29.82 in 10.0 mi South 23.0 mph 29.9 mph N/A   Mostly Cloudy
9:53 AM 77.0 °F - 69.1 °F 76% 29.83 in 10.0 mi South 19.6 mph 31.1 mph N/A   Mostly Cloudy
10:53 AM 79.0 °F - 69.1 °F 72% 29.82 in 10.0 mi South 24.2 mph 31.1 mph N/A   Mostly Cloudy
11:40 AM 80.6 °F 83.9 °F 69.8 °F 70% 29.82 in 10.0 mi South 20.7 mph 31.1 mph N/A   Mostly Cloudy
11:53 AM 82.0 °F 85.9 °F 70.0 °F 67% 29.81 in 10.0 mi South 19.6 mph 28.8 mph N/A   Scattered Clouds
12:53 PM 82.9 °F 87.0 °F 70.0 °F 65% 29.78 in 10.0 mi South 23.0 mph 35.7 mph N/A   Partly Cloudy
1:53 PM 86.0 °F 91.5 °F 71.1 °F 61% 29.77 in 10.0 mi South 25.3 mph 33.4 mph N/A   Scattered Clouds
2:53 PM 87.1 °F 92.0 °F 70.0 °F 57% 29.75 in 10.0 mi South 18.4 mph 34.5 mph N/A   Partly Cloudy
3:53 PM 86.0 °F 91.5 °F 71.1 °F 61% 29.74 in 10.0 mi South 26.5 mph 32.2 mph N/A   Partly Cloudy
4:53 PM 87.1 °F 93.6 °F 72.0 °F 61% 29.73 in 10.0 mi South 23.0 mph 28.8 mph N/A   Partly Cloudy
5:53 PM 86.0 °F 92.2 °F 72.0 °F 63% 29.74 in 10.0 mi SSE 13.8 mph 29.9 mph N/A   Mostly Cloudy
6:53 PM 84.0 °F 89.0 °F 71.1 °F 65% 29.74 in 10.0 mi SSE 16.1 mph 25.3 mph N/A   Clear
7:53 PM 82.0 °F 86.3 °F 71.1 °F 69% 29.75 in 10.0 mi SSE 13.8 mph - N/A   Clear
8:53 PM 80.1 °F 83.6 °F 71.1 °F 74% 29.76 in 10.0 mi SSE 13.8 mph 19.6 mph N/A   Clear
9:53 PM 80.1 °F 82.9 °F 69.1 °F 69% 29.78 in 10.0 mi SSE 17.3 mph 25.3 mph N/A   Clear
10:53 PM 79.0 °F - 66.0 °F 64% 29.81 in 10.0 mi SSE 19.6 mph 27.6 mph N/A   Clear